Location: Bretagne
(43.8474°N, 0.4650°W)
Time: 16:20:09
(UTC+00:00)

Cosmos 1741 Rocket - Pass Details

Date: 15 January 2026
Orbit: 758 x 777 km, 74.0° (Epoch: 17 February)

Event Time Altitude Azimuth Distance (km) Brightness Sun altitude
Rises 18:32:44 0° 336° (NNW) 3,235 7.4 -18.1°
Reaches altitude 10° 18:35:08 10° 334° (NNW) 2,303 6.6 -18.5°
Maximum altitude 18:40:17 64° 254° (WSW) 838 4.4 -19.5°
Drops below altitude 10° 18:45:24 10° 173° (S) 2,280 6.5 -20.4°
Sets 18:47:46 0° 170° (S) 3,200 7.2 -20.8°
